Tracking 33094 objects as of 25-Jan-2026
HD Live streaming from Space Station
objects crossing your sky now

COSMOS 1275 DEB

Track COSMOS 1275 DEB now!
10-day predictions


NORAD ID: 12766
Int'l Code: 1981-053DK
Perigee: 933.8 km
Apogee: 1,078.8 km
Inclination: 82.9 °
Period: 105.1 minutes
Semi major axis: 7377 km
RCS: 0.051 m2 (small)
Launch date: June 4, 1981
Source: Commonwealth of Independent States (former USSR) (CIS)
Launch site: PLESETSK MISSILE AND SPACE COMPLEX (PKMTR)

Note: This is SATELLITE DEBRIS
Your satellite tracking list
Your tracking list is empty




NASA's NSSDC Master Catalog

Two Line Element Set (TLE):
1 12766U 81053DK  26024.98875193  .00000718  00000-0  77357-3 0  9991
2 12766  82.9455 223.6865 0098258 317.4988 197.0301 13.70123889212234
Source of the keplerian elements: AFSPC